Location: *
(49.0044°N, 9.5056°E)
Time: 03:12:20
(UTC+00:00)

SPOT 5 - Pass Details

Date: 22 September 2019
Orbit: 624 x 814 km, 98.3° (Epoch: 22 October)

Event Time Altitude Azimuth Distance (km) Brightness Sun altitude
Exits shadow 21:05:27 36° 340° (NNW) 1,180 4.3 -33.5°
Drops below altitude 10° 21:08:27 10° 344° (NNW) 2,308 6.2 -33.8°
Sets 21:10:50 0° 346° (NNW) 3,265 7.1 -34.1°
